CDT,Max TemperatureF,Mean TemperatureF,Min TemperatureF,Max Dew PointF,MeanDew PointF,Min DewpointF,Max Humidity, Mean Humidity, Min Humidity, Max Sea Level PressureIn, Mean Sea Level PressureIn, Min Sea Level PressureIn, Max VisibilityMiles, Mean VisibilityMiles, Min VisibilityMiles, Max Wind SpeedMPH, Mean Wind SpeedMPH, Max Gust SpeedMPH,PrecipitationIn, CloudCover, Events, WindDirDegrees
2013-4-1,84,68,51,59,50,45,89,60,31,30.02,29.93,29.81,10,10,10,25,12,32,0.10,1,,137
2013-4-2,63,53,42,59,46,41,100,92,84,30.05,29.99,29.86,10,6,2,24,13,30,0.20,8,Rain,3
2013-4-3,43,41,39,43,40,39,100,95,89,30.20,30.12,30.02,10,7,2,21,15,25,0.01,8,Rain,349
2013-4-4,60,49,38,41,38,36,100,75,49,30.25,30.18,30.11,10,10,5,16,9,21,0.00,6,,352
2013-4-5,75,56,36,45,40,35,92,61,29,30.22,30.10,29.91,10,10,10,24,11,32,0.00,0,,162
2013-4-6,85,71,56,55,46,42,66,45,24,29.88,29.79,29.71,10,10,10,33,18,46,0.00,0,,183
2013-4-7,91,75,59,60,54,40,84,51,17,29.77,29.68,29.55,10,10,10,26,17,33,0.00,0,,177
2013-4-8,84,74,63,63,61,57,93,67,40,29.69,29.59,29.48,10,10,8,30,20,39,0.00,2,,172
2013-4-9,93,65,37,64,54,30,87,52,16,29.82,29.56,29.43,10,10,8,33,21,41,0.01,3,Rain,183
2013-4-10,50,41,31,37,33,28,96,76,56,30.05,29.95,29.83,10,8,2,16,16,22,1.01,7,Rain-Snow-Thunderstorm,347
2013-4-11,67,52,36,39,34,27,92,60,28,30.00,29.88,29.77,10,10,10,14,4,22,0.00,0,,149
2013-4-12,79,64,48,44,40,36,71,48,25,29.94,29.84,29.75,10,10,10,22,11,28,0.00,0,,162
2013-4-13,81,69,57,47,39,32,52,37,21,29.87,29.77,29.67,10,10,10,23,17,30,0.00,1,,166
2013-4-14,92,75,58,54,42,28,80,45,10,29.68,29.55,29.45,10,10,10,28,13,37,0.00,0,,203
2013-4-15,94,78,62,58,43,30,51,31,11,29.65,29.59,29.54,10,10,10,21,12,28,0.00,0,,195
2013-4-16,91,79,67,65,61,57,81,60,38,29.81,29.71,29.63,10,9,6,26,14,33,0.00,0,,155
2013-4-17,91,81,70,69,66,64,87,66,44,29.74,29.60,29.46,10,7,5,35,23,43,0.00,1,,164
2013-4-18,73,58,42,67,38,24,93,61,28,30.17,29.90,29.52,10,9,2,38,19,47,0.39,5,Rain-Thunderstorm,344
2013-4-19,67,51,34,29,24,18,75,46,16,30.32,30.21,30.10,10,10,10,14,6,18,0.00,0,,316
2013-4-20,74,61,47,32,28,25,46,33,20,30.10,29.99,29.83,10,10,10,35,21,43,0.00,0,,160
2013-4-21,77,64,50,51,46,30,83,60,36,30.08,29.98,29.93,10,10,10,25,17,33,0.00,1,,152
2013-4-22,86,72,58,56,54,50,84,58,32,29.99,29.86,29.70,10,10,10,28,20,36,0.00,2,,176
2013-4-23,71,55,39,57,38,30,79,66,52,30.25,30.00,29.68,10,10,10,26,19,31,0.00,6,,360
2013-4-24,62,48,33,30,26,22,75,49,23,30.33,30.26,30.18,10,10,10,25,11,31,0.00,4,,29
2013-4-25,70,62,53,40,36,30,50,41,32,30.30,30.19,30.04,10,10,10,29,13,35,0.00,7,,132
2013-4-26,87,74,61,60,53,39,73,51,29,30.07,29.97,29.86,10,10,10,28,15,36,0.00,4,,182
2013-4-27,82,68,54,59,48,37,93,57,21,30.10,30.03,29.96,10,10,10,15,7,22,0.00,0,,30
2013-4-28,89,72,54,60,48,39,86,52,18,29.99,29.88,29.77,10,10,10,22,11,28,0.00,0,,170
2013-4-29,88,73,57,58,48,35,72,44,16,29.85,29.77,29.68,10,10,10,26,12,35,0.00,0,,176
2013-4-30,91,76,60,61,56,49,90,60,29,29.83,29.68,29.59,10,10,10,25,15,31,0.00,0,,162